Terug naar catalogus

STARLINK-36194

ActiefCommunicatieVLEO
NORAD 67130·PAYLOAD·🇺🇸 United States

Gelanceerd Dec 15, 2025 vanaf Cape Canaveral Space Force Station

Loading…

Volgende Passages (komende 24 uur)

TLE

VersSource: CelesTrak SupGP

Epoch: Sep 14, 2026, 22:37 UTC

1 67130C 25299AE  26257.94284722 -.00022124  00000+0 -80123-3 0  2570
2 67130  43.0027 180.1306 0001051 264.2261 351.5805 15.27593720    13

Volg STARLINK-36194 in realtime met AllMySat

Download on the App Store